Location: Avrainville
(48.5629°N, 2.2455°E)
Time: 04:10:02
(UTC+00:00)

Daily predictions for brighter satellites

Satellite Brightness Start Highest point End
(mag) Time Altitude Azimuth Time Altitude Azimuth Time Altitude Azimuth
SL-16 R/B 3.8 01:09:58 35° NNE 01:09:58 35° NNE 01:13:44 10° N
Cosmos 2237 Rocket 4.4 01:10:41 19° N 01:10:41 19° N 01:12:56 10° N
ADEOS II 4.2 01:14:53 10° NNE 01:17:15 22° NE 01:17:15 22° NE
SL-16 R/B 3.9 01:48:08 26° N 01:48:08 26° N 01:51:08 10° NNE
CZ-2D R/B 3.6 01:47:27 10° NNE 01:50:21 33° NNE 01:50:21 33° NNE
Resurs 1-4 Rocket 3.5 01:59:03 10° N 02:01:49 32° N 02:01:49 32° N
Cosmos 1943 4.0 02:23:44 42° N 02:23:44 42° N 02:27:48 10° NNE
Cosmos 1603 4.4 02:26:52 47° N 02:26:52 47° N 02:31:09 10° NNE
IDEFIX/ARIANE 42P 3.3 02:32:05 10° N 02:35:50 45° N 02:35:50 45° N
SL-08 R/B 4.3 02:39:14 85° NNW 02:39:14 85° NNW 02:45:15 10° N
ATLAS 5 CENTAUR R/B 3.6 02:40:34 21° N 02:40:34 21° N 02:42:58 10° NNE
Cosmos 2239 Rocket 4.4 02:41:02 70° SE 02:41:38 77° E 02:47:49 10° NNE
Cosmos 2221 4.3 02:44:52 26° N 02:44:52 26° N 02:46:48 10° N
CZ-2C R/B 4.1 02:39:11 10° NNE 02:43:37 30° E 02:45:49 21° SE
Cosmos 2251 Rocket 4.2 02:38:35 10° NNW 02:43:46 54° ENE 02:48:53 10° SE
Cosmos 1000 Rocket 4.3 02:37:51 10° N 02:44:08 87° W 02:44:15 85° SW
Cosmos 1821 Rocket 3.8 02:45:36 79° WNW 02:45:36 79° WNW 02:51:51 10° N
MSX 3.9 02:44:39 10° N 02:49:57 65° NW 02:49:57 65° NW
SL-16 R/B 4.2 02:55:05 19° NW 02:55:05 19° NW 02:57:05 10° NNW
Cosmos 2123 Rocket 4.1 02:46:45 10° N 02:53:00 74° E 02:57:14 22° SSE
FENGYUN 3A 4.1 02:48:28 10° NNE 02:53:46 56° E 02:55:11 43° SSE
ADEOS II 3.0 02:54:23 10° N 02:58:10 37° NW 02:58:10 37° NW
Cosmos 1140 Rocket 4.2 02:56:02 10° NNW 03:01:07 53° ENE 03:06:12 10° SE
Sich 1 3.8 02:58:28 10° N 03:02:40 49° ENE 03:04:07 34° SE
Cosmos 1697 Rocket 4.1 02:57:36 10° NNW 03:02:51 37° NE 03:08:05 10° ESE
Cosmos 44 3.8 03:03:53 45° N 03:03:53 45° N 03:07:12 10° NNE
Cosmos 1782 4.1 03:11:05 32° N 03:11:05 32° N 03:13:24 10° N
IRS-1D 3.4 03:04:53 10° NNE 03:10:14 75° WNW 03:10:32 72° WSW
Cosmos 1934 Rocket 4.0 03:08:36 38° S 03:11:16 84° E 03:17:38 10° N
CBERS-1 4.1 03:06:55 10° NNE 03:12:03 72° ESE 03:13:28 48° S
Cosmos 1605 Rocket 4.5 03:08:56 14° SSE 03:14:06 56° E 03:20:04 10° NNE
CZ-2C R/B 3.4 03:18:42 10° SE 03:23:43 51° ENE 03:28:51 10° N
Cosmos 1932 4.5 03:25:13 48° WSW 03:26:57 68° NW 03:33:25 10° NE
Cosmos 1812 4.1 03:31:34 28° NNW 03:31:34 28° NNW 03:33:43 10° N
Cosmos 1340 4.4 03:32:42 21° NNW 03:32:42 21° NNW 03:34:19 10° N
SL-16 R/B 4.5 03:30:39 10° NW 03:31:57 11° NNW 03:33:15 10° NNW
PAYLOAD A 3.9 03:27:18 10° NNE 03:32:04 75° ESE 03:34:35 29° S
CZ-2D R/B 3.9 03:28:54 10° NNW 03:31:39 16° NW 03:31:39 16° NW
Cosmos 407 Rocket 3.5 03:28:23 10° NNW 03:33:43 86° ENE 03:39:04 10° SSE
Tiangong 0.6 03:38:03 12° SSE 03:38:03 12° SSE 03:38:27 10° SE
Atlas Centaur 2 4.5 03:36:13 16° SSW 03:38:21 17° S 03:42:47 10° SE
BREEZE-M DEB (TANK) 1.8 03:41:11 72° ESE 03:41:11 72° ESE 03:45:18 10° ESE
Cosmos 1980 Rocket 3.6 03:36:10 10° NNW 03:41:23 38° NE 03:46:33 10° ESE
Meteor 1-14 Rocket 4.2 03:36:06 10° NNW 03:42:02 71° W 03:47:50 10° S
EO 1 Del DPAF 4.3 03:38:56 10° N 03:40:48 27° NNW 03:40:48 27° NNW
Cosmos 1656 3.6 03:36:28 10° NNW 03:42:09 65° WSW 03:47:45 10° SSE
X-37B 2.7 03:43:15 17° SE 03:43:15 17° SE 03:44:47 10° ESE
ALOS 2.2 03:38:06 10° N 03:42:45 68° WNW 03:44:08 44° SW
Resurs 1-4 Rocket 4.1 03:40:55 10° NNW 03:42:52 13° NW 03:42:52 13° NW
USA 307 4.4 03:51:03 19° S 03:53:06 29° SE 03:56:44 10° ENE
Helios 1B rocket 2.3 03:49:32 10° NNE 03:53:37 83° WNW 03:55:38 29° SSW
Cosmos 1805 Rocket 3.9 03:50:06 10° NNW 03:54:16 41° W 03:54:18 41° W
Meteor 1-5 Rocket 4.3 03:49:08 10° NNW 03:54:16 44° W 03:57:32 20° SSW
ARIANE 5 R/B 2.6 03:50:14 10° NNE 03:55:20 76° ESE 04:00:20 10° S
Meteor 1-11 Rocket 4.0 03:52:55 10° N 03:58:55 76° ENE 04:04:53 10° SSE
SL-08 R/B 3.4 03:57:30 10° SSE 04:02:08 80° ENE 04:06:53 10° NNW
Cosmos 1633 Rocket 3.0 03:59:24 10° N 04:03:46 86° E 04:08:07 10° S
USA 306 3.7 04:05:17 22° SSW 04:07:33 43° SE 04:11:28 10° ENE
Cosmos 1484 Rocket 2.9 04:04:04 10° NNE 04:08:04 76° ESE 04:12:02 10° S
Cosmos 676 Rocket 4.2 04:04:58 10° NNW 04:10:11 72° ENE 04:15:24 10° SSE
Cosmos 1666 Rocket 3.5 04:09:05 10° NNW 04:13:31 64° W 04:17:56 10° S
Cosmos 2098 Rocket 1.8 04:10:37 10° NNW 04:13:32 73° W 04:16:26 10° S
ERS-1 4.5 04:09:17 10° NNE 04:14:29 81° WNW 04:19:41 10° SSW
Cosmos 2360 4.1 04:09:17 10° NNW 04:15:00 73° WSW 04:20:39 10° SSE
Cosmos 1624 Rocket 4.2 04:11:54 10° SSW 04:17:10 76° ESE 04:22:31 10° NNE
Cosmos 1153 Rocket 4.4 04:11:59 10° SSW 04:18:06 81° W 04:24:22 10° N
Meteor 1-4 Rocket 2.6 04:14:31 10° N 04:18:08 78° ENE 04:21:46 10° SSE
CZ-2C R/B 3.9 04:13:21 10° NNE 04:19:08 60° E 04:24:42 10° S
Cosmos 2100 Rocket 4.3 04:15:09 10° S 04:21:15 71° E 04:27:23 10° NNE
Cosmos 1328 Rocket 3.5 04:17:28 10° S 04:21:50 86° WNW 04:26:15 10° N
USA 234 3.7 04:15:26 10° ENE 04:21:54 59° SE 04:28:21 10° SW
CZ-2C R/B 2.9 04:17:12 10° N 04:21:56 40° WNW 04:25:10 18° SW
BREEZE-M DEB (TANK) 3.1 04:20:00 19° W 04:23:31 53° SSW 04:26:05 10° ESE
Cosmos 1833 Rocket 2.6 04:19:47 10° SSW 04:25:23 81° WNW 04:31:05 10° NNE
ATLAS 5 CENTAUR R/B 4.0 04:23:22 10° NNW 04:25:34 13° N 04:27:56 10° NNE
Cosmos 2251 Rocket 4.5 04:21:30 10° NW 04:25:40 24° W 04:29:48 10° SSW
USA 308 3.5 04:24:31 15° SW 04:27:42 50° SE 04:31:43 10° ENE
CZ-2C R/B 1.6 04:25:43 10° N 04:27:48 83° E 04:31:13 10° S
Cosmos 1515 3.6 04:24:17 10° SSW 04:27:58 62° WNW 04:31:41 10° N
Envisat 3.0 04:22:55 10° NNE 04:28:02 86° ESE 04:33:07 10° SSW
ERBS 1.8 04:28:10 28° WSW 04:29:30 79° NW 04:32:24 10° NE
Cosmos 1371 Rocket 4.0 04:24:45 10° SSW 04:30:03 81° WNW 04:35:20 10° NNE
Aureole 3 4.0 04:28:39 19° SW 04:30:45 31° WNW 04:33:55 10° NNW
IRS-1C 4.3 04:25:45 10° N 04:30:55 50° WNW 04:36:02 10° SW
Cosmos 1536 2.8 04:27:09 10° NNW 04:31:11 65° W 04:35:11 10° S
PSLV R/B 4.3 04:28:15 10° NNE 04:32:33 55° E 04:36:46 10° S
COSMOS 2406 3.6 04:28:51 10° SSW 04:34:28 68° ESE 04:40:07 10° NNE
Cosmos 2082 Rocket 3.0 04:30:18 10° S 04:35:44 54° ESE 04:41:12 10° NE
YAOGAN 6 2.6 04:35:04 10° N 04:38:40 57° WNW 04:42:13 10° SSW
Cosmos 1515 Rocket 3.7 04:35:27 10° S 04:39:52 78° E 04:44:20 10° NNE
Sich 1 4.4 04:37:03 10° NW 04:39:54 17° W 04:40:54 16° WSW
Cosmos 1151 Rocket 3.6 04:36:49 12° SW 04:40:22 34° WNW 04:44:17 10° N
BREEZE M DEB (TANK) 4.5 04:22:03 15° W 04:40:57 85° N 04:46:00 10° E
Cosmos 1140 Rocket 4.5 04:38:27 10° NW 04:42:34 24° W 04:46:40 10° SSW
Cosmos 1470 Rocket 3.5 04:40:13 10° NNW 04:44:29 60° W 04:48:45 10° S
Cosmos 1697 Rocket 3.0 04:41:35 10° NW 04:46:55 43° WSW 04:52:12 10° S
Cosmos 1356 4.3 04:49:23 12° SW 04:51:49 26° WNW 04:54:37 10° NNW
Cosmos 1346 Rocket 3.3 04:48:32 10° SW 04:52:17 39° WNW 04:56:03 10° N
BREEZE M DEB (TANK) 4.0 04:40:49 10° SW 04:54:00 60° SSE 04:57:48 10° E
ATLAS CENTAUR R/B 2.0 04:49:28 10° SSW 04:54:18 75° SE 04:59:10 10° NE
Cosmos 1850 Rocket 4.4 04:49:15 10° NNW 04:54:35 70° ENE 04:59:54 10° SSE
Cosmos 1743 3.4 04:52:55 10° NNW 04:56:18 31° W 04:59:41 10° SSW
USA 305 2.8 04:53:50 10° WSW 04:57:53 90° W 05:02:03 10° ENE
BREEZE-M DEB (TANK) 1.6 04:56:15 11° WNW 04:59:02 81° SSW 05:01:24 10° ESE
CZ-2C R/B 2.6 04:55:23 10° NNE 04:59:07 80° WNW 05:02:54 10° SSW
Tsikada Rocket 4.4 04:53:09 10° N 04:59:31 71° E 05:05:45 10° SSE
Cosmos 2056 Rocket 3.7 04:55:41 10° SW 05:00:40 50° WNW 05:05:39 10° NNE
Cosmos 1441 Rocket 3.6 04:59:53 10° SW 05:03:21 38° WNW 05:06:53 10° N
Meteor 1-27 Rocket 3.9 04:58:00 10° SSW 05:03:38 55° WNW 05:09:26 10° N
Cosmos 1954 Rocket 4.5 04:59:14 10° NW 05:04:03 39° WSW 05:08:53 10° S
CZ-2C R/B 3.5 05:00:05 10° SSW 05:04:19 25° W 05:08:38 10° NW
Cosmos 1802 Rocket 4.0 04:59:49 10° SSW 05:06:14 77° W 05:12:36 10° N
Cosmos 1939 Rocket 4.4 05:05:32 10° NNE 05:09:26 42° E 05:13:16 10° S
Cosmos 1459 Rocket 4.1 05:04:51 10° SSW 05:11:05 58° WNW 05:17:24 10° N
Spot 4 Rocket 4.3 05:06:41 10° N 05:11:38 49° WNW 05:16:33 10° SW
COSMO-SKYMED 1 2.5 05:07:58 10° S 05:12:17 70° WSW 05:16:39 10° NNW
Cosmos 1420 Rocket 4.3 05:07:53 10° SW 05:12:56 47° WNW 05:17:58 10° NNE
CENTAUR R/B 3.3 05:07:42 10° SSW 05:13:19 54° ESE 05:20:07 10° NE
Meteor 1-29 3.9 05:10:54 10° N 05:13:42 26° WNW 05:16:30 10° SW
Cosmos 2322 Rocket 3.7 05:08:43 10° NNW 05:14:04 39° NE 05:19:21 10° ESE
CZ-4C R/B 4.2 05:12:12 10° SSW 05:15:53 32° W 05:19:44 10° NNW
